"Time","Value","Approval","myLocation"
"2023-03-30 00:00",6.48601982495099,"Approved","OW201"
"2023-03-30 01:00",6.49079100622087,"Approved","OW201"
"2023-03-30 02:00",6.49411373749074,"Approved","OW201"
"2023-03-30 03:00",6.49411313876062,"Approved","OW201"
"2023-03-30 04:00",6.49912168003049,"Approved","OW201"
"2023-03-30 05:00",6.50350053130037,"Approved","OW201"
"2023-03-30 06:00",6.50181086257025,"Approved","OW201"
"2023-03-30 07:00",6.50097584384012,"Approved","OW201"
"2023-03-30 08:00",6.50042679511,"Approved","OW201"
"2023-03-30 09:00",6.50108704637987,"Approved","OW201"
"2023-03-30 10:00",6.49770683764975,"Approved","OW201"
"2023-03-30 11:00",6.49809367891963,"Approved","OW201"
"2023-03-30 12:00",6.4974961801895,"Approved","OW201"
"2023-03-30 13:00",6.49767209145938,"Approved","OW201"
"2023-03-30 14:00",6.49721831272925,"Approved","OW201"
"2023-03-30 15:00",6.49923158399913,"Approved","OW201"
"2023-03-30 16:00",6.497799665269,"Approved","OW201"
"2023-03-30 17:00",6.49589433653888,"Approved","OW201"
"2023-03-30 18:00",6.49734512780876,"Approved","OW201"
"2023-03-30 19:00",6.49609917907863,"Approved","OW201"
"2023-03-30 20:00",6.49571571034851,"Approved","OW201"
"2023-03-30 21:00",6.49567596161838,"Approved","OW201"
"2023-03-30 22:00",6.49585970288826,"Approved","OW201"
"2023-03-30 23:00",6.49488096415814,"Approved","OW201"
"2023-03-31 00:00",6.49600222542801,"Approved","OW201"
"2023-03-31 01:00",6.49819689669789,"Approved","OW201"
"2023-03-31 02:00",6.49940249796776,"Approved","OW201"
"2023-03-31 03:00",6.50298770923764,"Approved","OW201"
"2023-03-31 04:00",6.50640881050751,"Approved","OW201"
"2023-03-31 05:00",6.50815650177739,"Approved","OW201"
"2023-03-31 06:00",6.50699179304727,"Approved","OW201"
"2023-03-31 07:00",6.50358189431714,"Approved","OW201"
"2023-03-31 08:00",6.50182501558702,"Approved","OW201"
"2023-03-31 09:00",6.50270092685689,"Approved","OW201"
"2023-03-31 10:00",6.50060815812677,"Approved","OW201"
"2023-03-31 11:00",6.49902631939664,"Approved","OW201"
"2023-03-31 12:00",6.49753828066652,"Approved","OW201"
"2023-03-31 13:00",6.4927003219364,"Approved","OW201"
"2023-03-31 14:00",6.49211228320627,"Approved","OW201"
"2023-03-31 15:00",6.49326943447615,"Approved","OW201"
"2023-03-31 16:00",6.48926426574603,"Approved","OW201"
"2023-03-31 17:00",6.4863731270159,"Approved","OW201"
"2023-03-31 18:00",6.48546322828578,"Approved","OW201"
"2023-03-31 19:00",6.47992216955565,"Approved","OW201"
"2023-03-31 20:00",6.47847165082553,"Approved","OW201"
"2023-03-31 21:00",6.4783898120954,"Approved","OW201"
"2023-03-31 22:00",6.48514060336528,"Approved","OW201"
"2023-03-31 23:00",6.49293185463516,"Approved","OW201"
"2023-04-01 00:00",6.50451511590503,"Approved","OW201"
"2023-04-01 01:00",6.50813458717491,"Approved","OW201"
"2023-04-01 02:00",6.51058064844478,"Approved","OW201"
"2023-04-01 03:00",6.51193616971466,"Approved","OW201"
"2023-04-01 04:00",6.51804928098453,"Approved","OW201"
"2023-04-01 05:00",6.51712356225441,"Approved","OW201"
"2023-04-01 06:00",6.51679001352429,"Approved","OW201"
"2023-04-01 07:00",6.51640018479416,"Approved","OW201"
"2023-04-01 08:00",6.51673221606404,"Approved","OW201"
"2023-04-01 09:00",6.51676734733391,"Approved","OW201"
"2023-04-01 10:00",6.51668061860379,"Approved","OW201"
"2023-04-01 11:00",6.51533613987367,"Approved","OW201"
"2023-04-01 12:00",6.51494631114354,"Approved","OW201"
"2023-04-01 13:00",6.51503772241342,"Approved","OW201"
"2023-04-01 14:00",6.51669471368329,"Approved","OW201"
"2023-04-01 15:00",6.51847666495317,"Approved","OW201"
"2023-04-01 16:00",6.51840396622304,"Approved","OW201"
"2023-04-01 17:00",6.51618607749292,"Approved","OW201"
"2023-04-01 18:00",6.5143119087628,"Approved","OW201"
"2023-04-01 19:00",6.51165650003267,"Approved","OW201"
"2023-04-01 20:00",6.51268690130255,"Approved","OW201"
"2023-04-01 21:00",6.50947994257242,"Approved","OW201"
"2023-04-01 22:00",6.5079917438423,"Approved","OW201"
"2023-04-01 23:00",6.50344122511218,"Approved","OW201"
"2023-04-02 00:00",6.50524356638205,"Approved","OW201"
"2023-04-02 01:00",6.50753187765193,"Approved","OW201"
"2023-04-02 02:00",6.5080139889218,"Approved","OW201"
"2023-04-02 03:00",6.51111323019168,"Approved","OW201"
"2023-04-02 04:00",6.51436712146155,"Approved","OW201"
"2023-04-02 05:00",6.51453830273143,"Approved","OW201"
"2023-04-02 06:00",6.51371731400131,"Approved","OW201"
"2023-04-02 07:00",6.51538996527118,"Approved","OW201"
"2023-04-02 08:00",6.51407207654106,"Approved","OW201"
"2023-04-02 09:00",6.51303852781093,"Approved","OW201"
"2023-04-02 10:00",6.51322683908081,"Approved","OW201"
"2023-04-02 11:00",6.51239019035069,"Approved","OW201"
"2023-04-02 12:00",6.51490966162056,"Approved","OW201"
"2023-04-02 13:00",6.51577921289044,"Approved","OW201"
"2023-04-02 14:00",6.51762527416031,"Approved","OW201"
"2023-04-02 15:00",6.52042598543019,"Approved","OW201"
"2023-04-02 16:00",6.52090956670007,"Approved","OW201"
"2023-04-02 17:00",6.52443833796994,"Approved","OW201"
"2023-04-02 18:00",6.52533904923982,"Approved","OW201"
"2023-04-02 19:00",6.52483666050969,"Approved","OW201"
"2023-04-02 20:00",6.52115156177957,"Approved","OW201"
"2023-04-02 21:00",6.51840708304944,"Approved","OW201"
"2023-04-02 22:00",6.51679229431932,"Approved","OW201"
"2023-04-02 23:00",6.5146337855892,"Approved","OW201"
"2023-04-03 00:00",6.51384868685907,"Approved","OW201"
"2023-04-03 01:00",6.51633226812895,"Approved","OW201"
"2023-04-03 02:00",6.52080638939882,"Approved","OW201"
"2023-04-03 03:00",6.5219790406687,"Approved","OW201"
"2023-04-03 04:00",6.52794370193858,"Approved","OW201"
"2023-04-03 05:00",6.52800232320845,"Approved","OW201"
"2023-04-03 06:00",6.52755311447833,"Approved","OW201"
"2023-04-03 07:00",6.5269820457482,"Approved","OW201"
"2023-04-03 08:00",6.52787965701808,"Approved","OW201"
"2023-04-03 09:00",6.52684137828795,"Approved","OW201"
"2023-04-03 10:00",6.52537030955783,"Approved","OW201"
"2023-04-03 11:00",6.52464296082771,"Approved","OW201"
"2023-04-03 12:00",6.52470468209758,"Approved","OW201"
"2023-04-03 13:00",6.52579136336746,"Approved","OW201"
"2023-04-03 14:00",6.52885455463733,"Approved","OW201"
"2023-04-03 15:00",6.53000061590721,"Approved","OW201"
"2023-04-03 16:00",6.52968892717709,"Approved","OW201"
"2023-04-03 17:00",6.53022878844696,"Approved","OW201"
"2023-04-03 18:00",6.53026864971684,"Approved","OW201"
"2023-04-03 19:00",6.52880541098671,"Approved","OW201"
"2023-04-03 20:00",6.52381264225659,"Approved","OW201"
"2023-04-03 21:00",6.51822460352646,"Approved","OW201"
"2023-04-03 22:00",6.51080540479634,"Approved","OW201"
"2023-04-03 23:00",6.51452487606622,"Approved","OW201"
"2023-04-04 00:00",6.51391481733609,"Approved","OW201"
"2023-04-04 01:00",6.50946592860597,"Approved","OW201"
"2023-04-04 02:00",6.51074493987584,"Approved","OW201"
"2023-04-04 03:00",6.51400829114572,"Approved","OW201"
"2023-04-04 04:00",6.5199246624156,"Approved","OW201"
"2023-04-04 05:00",6.52338948368547,"Approved","OW201"
"2023-04-04 06:00",6.52270911495535,"Approved","OW201"
"2023-04-04 07:00",6.52562238622522,"Approved","OW201"
"2023-04-04 08:00",6.5260137974951,"Approved","OW201"
"2023-04-04 09:00",6.52476621876497,"Approved","OW201"
"2023-04-04 10:00",6.52279678003485,"Approved","OW201"
"2023-04-04 11:00",6.52338819130473,"Approved","OW201"
"2023-04-04 12:00",6.5232843325746,"Approved","OW201"
"2023-04-04 13:00",6.52490543384448,"Approved","OW201"
"2023-04-04 14:00",6.52705149511435,"Approved","OW201"
"2023-04-04 15:00",6.52868042638423,"Approved","OW201"
"2023-04-04 16:00",6.53155617765411,"Approved","OW201"
"2023-04-04 17:00",6.53255541892398,"Approved","OW201"
"2023-04-04 18:00",6.53261094019386,"Approved","OW201"
"2023-04-04 19:00",6.53049468146373,"Approved","OW201"
"2023-04-04 20:00",6.52648005273361,"Approved","OW201"
"2023-04-04 21:00",6.52341697400349,"Approved","OW201"
"2023-04-04 22:00",6.51845862527336,"Approved","OW201"
"2023-04-04 23:00",6.51507841654324,"Approved","OW201"
"2023-04-05 00:00",6.51248254781311,"Approved","OW201"
"2023-04-05 01:00",6.51362566908299,"Approved","OW201"
"2023-04-05 02:00",6.51477189035286,"Approved","OW201"
"2023-04-05 03:00",6.51621501162274,"Approved","OW201"
"2023-04-05 04:00",6.52346417289262,"Approved","OW201"
"2023-04-05 05:00",6.52433225416249,"Approved","OW201"
"2023-04-05 06:00",6.52390196543237,"Approved","OW201"
"2023-04-05 07:00",6.52438880670224,"Approved","OW201"
"2023-04-05 08:00",6.52451936797212,"Approved","OW201"
"2023-04-05 09:00",6.52056884924199,"Approved","OW201"
"2023-04-05 10:00",6.51661833051187,"Approved","OW201"
"2023-04-05 11:00",6.51464742178175,"Approved","OW201"
"2023-04-05 12:00",6.51308124305162,"Approved","OW201"
"2023-04-05 13:00",6.5143977743215,"Approved","OW201"
"2023-04-05 14:00",6.51347221559137,"Approved","OW201"
"2023-04-05 15:00",6.51500130686125,"Approved","OW201"
"2023-04-05 16:00",6.51538357813113,"Approved","OW201"
"2023-04-05 17:00",6.514662749401,"Approved","OW201"
"2023-04-05 18:00",6.51955269067088,"Approved","OW201"
"2023-04-05 19:00",6.51983333194075,"Approved","OW201"
"2023-04-05 20:00",6.51889521321063,"Approved","OW201"
"2023-04-05 21:00",6.51452136448051,"Approved","OW201"
"2023-04-05 22:00",6.50977557575038,"Approved","OW201"
"2023-04-05 23:00",6.50853598702026,"Approved","OW201"
"2023-04-06 00:00",6.50420438829013,"Approved","OW201"
"2023-04-06 01:00",6.50150084956001,"Approved","OW201"
"2023-04-06 02:00",6.49822390082988,"Approved","OW201"
"2023-04-06 03:00",6.49997338209976,"Approved","OW201"
"2023-04-06 04:00",6.50732743336964,"Approved","OW201"
"2023-04-06 05:00",6.50692536463951,"Approved","OW201"
"2023-04-06 06:00",6.50714678590939,"Approved","OW201"
"2023-04-06 07:00",6.50559789717926,"Approved","OW201"
"2023-04-06 08:00",6.50413024844914,"Approved","OW201"
"2023-04-06 09:00",6.50399065971902,"Approved","OW201"
"2023-04-06 10:00",6.49907782098889,"Approved","OW201"
"2023-04-06 11:00",6.49810071225877,"Approved","OW201"
"2023-04-06 12:00",6.49403159352864,"Approved","OW201"
"2023-04-06 13:00",6.49150146479852,"Approved","OW201"
"2023-04-06 14:00",6.49216970606839,"Approved","OW201"
"2023-04-06 15:00",6.49843631733827,"Approved","OW201"
"2023-04-06 16:00",6.49632804860815,"Approved","OW201"
"2023-04-06 17:00",6.49830721987802,"Approved","OW201"
"2023-04-06 18:00",6.4984098811479,"Approved","OW201"
"2023-04-06 19:00",6.50051091241777,"Approved","OW201"
"2023-04-06 20:00",6.49876985368765,"Approved","OW201"
"2023-04-06 21:00",6.50047235495753,"Approved","OW201"
"2023-04-06 22:00",6.4985812162274,"Approved","OW201"
"2023-04-06 23:00",6.49728224749728,"Approved","OW201"
"2023-04-07 00:00",6.49516141876715,"Approved","OW201"
"2023-04-07 01:00",6.49423276003703,"Approved","OW201"
"2023-04-07 02:00",6.4972540213069,"Approved","OW201"
"2023-04-07 03:00",6.49840024257678,"Approved","OW201"
"2023-04-07 04:00",6.50409165384666,"Approved","OW201"
"2023-04-07 05:00",6.51301569511653,"Approved","OW201"
"2023-04-07 06:00",6.51988035638641,"Approved","OW201"
"2023-04-07 07:00",6.52871516765628,"Approved","OW201"
"2023-04-07 08:00",6.53490152892616,"Approved","OW201"
"2023-04-07 09:00",6.53859572019604,"Approved","OW201"
"2023-04-07 10:00",6.53663542146591,"Approved","OW201"
"2023-04-07 11:00",6.53547822273579,"Approved","OW201"
"2023-04-07 12:00",6.53583032400566,"Approved","OW201"
"2023-04-07 13:00",6.52942336527554,"Approved","OW201"
"2023-04-07 14:00",6.52761314654542,"Approved","OW201"
"2023-04-07 15:00",6.52534990781529,"Approved","OW201"
"2023-04-07 16:00",6.52052581908517,"Approved","OW201"
"2023-04-07 17:00",6.51881266035504,"Approved","OW201"
"2023-04-07 18:00",6.51920097162492,"Approved","OW201"
"2023-04-07 19:00",6.51655975289479,"Approved","OW201"
"2023-04-07 20:00",6.51336388416467,"Approved","OW201"
"2023-04-07 21:00",6.51168041543455,"Approved","OW201"
"2023-04-07 22:00",6.50772826670442,"Approved","OW201"
"2023-04-07 23:00",6.5050416979743,"Approved","OW201"
"2023-04-08 00:00",6.50340977924417,"Approved","OW201"
"2023-04-08 01:00",6.49736709051405,"Approved","OW201"
"2023-04-08 02:00",6.49304006178393,"Approved","OW201"
"2023-04-08 03:00",6.4881068330538,"Approved","OW201"
"2023-04-08 04:00",6.48743445432368,"Approved","OW201"
"2023-04-08 05:00",6.48468556559355,"Approved","OW201"
"2023-04-08 06:00",6.48766147686343,"Approved","OW201"
"2023-04-08 07:00",6.4876546781333,"Approved","OW201"
"2023-04-08 08:00",6.48540888940318,"Approved","OW201"
"2023-04-08 09:00",6.48382085067306,"Approved","OW201"
"2023-04-08 10:00",6.48308110194293,"Approved","OW201"
"2023-04-08 11:00",6.48412879321281,"Approved","OW201"
"2023-04-08 12:00",6.48268284448268,"Approved","OW201"
"2023-04-08 13:00",6.48101503575256,"Approved","OW201"
"2023-04-08 14:00",6.48717349702244,"Approved","OW201"
"2023-04-08 15:00",6.49307094829231,"Approved","OW201"
"2023-04-08 16:00",6.49895273956219,"Approved","OW201"
"2023-04-08 17:00",6.50224089083206,"Approved","OW201"
"2023-04-08 18:00",6.51060229210194,"Approved","OW201"
"2023-04-08 19:00",6.51767772337181,"Approved","OW201"
"2023-04-08 20:00",6.51961579464169,"Approved","OW201"
"2023-04-08 21:00",6.52003836591157,"Approved","OW201"
"2023-04-08 22:00",6.52382635718144,"Approved","OW201"
"2023-04-08 23:00",6.52235039845132,"Approved","OW201"
"2023-04-09 00:00",6.51492630972119,"Approved","OW201"
"2023-04-09 01:00",6.51310043099107,"Approved","OW201"
"2023-04-09 02:00",6.50601386226094,"Approved","OW201"
"2023-04-09 03:00",6.50272566353082,"Approved","OW201"
"2023-04-09 04:00",6.5022904848007,"Approved","OW201"
"2023-04-09 05:00",6.49738988607057,"Approved","OW201"
"2023-04-09 06:00",6.49344246734045,"Approved","OW201"
"2023-04-09 07:00",6.48982163861032,"Approved","OW201"
"2023-04-09 08:00",6.4833180998802,"Approved","OW201"
"2023-04-09 09:00",6.47208193115008,"Approved","OW201"
"2023-04-09 10:00",6.46309421241995,"Approved","OW201"
"2023-04-09 11:00",6.46366555368983,"Approved","OW201"
"2023-04-09 12:00",6.4549042649597,"Approved","OW201"
"2023-04-09 13:00",6.44345422622958,"Approved","OW201"
"2023-04-09 14:00",6.44649587749946,"Approved","OW201"
"2023-04-09 15:00",6.44595318876933,"Approved","OW201"
"2023-04-09 16:00",6.44940414003921,"Approved","OW201"
"2023-04-09 17:00",6.46829344130908,"Approved","OW201"
"2023-04-09 18:00",6.48266251257896,"Approved","OW201"
"2023-04-09 19:00",6.48436795384883,"Approved","OW201"
"2023-04-09 20:00",6.49845415511871,"Approved","OW201"
"2023-04-09 21:00",6.49657052638859,"Approved","OW201"
"2023-04-09 22:00",6.50211789765846,"Approved","OW201"
"2023-04-09 23:00",6.51091665892834,"Approved","OW201"
"2023-04-10 00:00",6.51138752019821,"Approved","OW201"
"2023-04-10 01:00",6.51349264146809,"Approved","OW201"
"2023-04-10 02:00",6.51031521273797,"Approved","OW201"
"2023-04-10 03:00",6.50912832400784,"Approved","OW201"
"2023-04-10 04:00",6.51332561527772,"Approved","OW201"
"2023-04-10 05:00",6.51974933654759,"Approved","OW201"
"2023-04-10 06:00",6.52337941781747,"Approved","OW201"
"2023-04-10 07:00",6.52440019908734,"Approved","OW201"
"2023-04-10 08:00",6.52094463035722,"Approved","OW201"
"2023-04-10 09:00",6.5153610016271,"Approved","OW201"
"2023-04-10 10:00",6.50643691289697,"Approved","OW201"
"2023-04-10 11:00",6.49610352416685,"Approved","OW201"
"2023-04-10 12:00",6.48934974543672,"Approved","OW201"
"2023-04-10 13:00",6.4810961267066,"Approved","OW201"
"2023-04-10 14:00",6.47557056797648,"Approved","OW201"
"2023-04-10 15:00",6.47138872924635,"Approved","OW201"
"2023-04-10 16:00",6.46761162051623,"Approved","OW201"
"2023-04-10 17:00",6.4664297817861,"Approved","OW201"
"2023-04-10 18:00",6.46604794305598,"Approved","OW201"
"2023-04-10 19:00",6.46206936432585,"Approved","OW201"
"2023-04-10 20:00",6.45692683559573,"Approved","OW201"
"2023-04-10 21:00",6.45793569686561,"Approved","OW201"
"2023-04-10 22:00",6.46152563813548,"Approved","OW201"
"2023-04-10 23:00",6.46099387940536,"Approved","OW201"
"2023-04-11 00:00",6.45699507067523,"Approved","OW201"
"2023-04-11 01:00",6.45600393194511,"Approved","OW201"
"2023-04-11 02:00",6.45504248321499,"Approved","OW201"
"2023-04-11 03:00",6.45303731448486,"Approved","OW201"
"2023-04-11 04:00",6.45643508575474,"Approved","OW201"
"2023-04-11 05:00",6.45848130702461,"Approved","OW201"
"2023-04-11 06:00",6.45636520829449,"Approved","OW201"
"2023-04-11 07:00",6.46018793956437,"Approved","OW201"
"2023-04-11 08:00",6.45934525083424,"Approved","OW201"
"2023-04-11 09:00",6.46190550210412,"Approved","OW201"
"2023-04-11 10:00",6.46527815337399,"Approved","OW201"
"2023-04-11 11:00",6.47216777464387,"Approved","OW201"
"2023-04-11 12:00",6.47136228591374,"Approved","OW201"
"2023-04-11 13:00",6.47129741718362,"Approved","OW201"
"2023-04-11 14:00",6.4708325484535,"Approved","OW201"
"2023-04-11 15:00",6.47324255972337,"Approved","OW201"
"2023-04-11 16:00",6.47438862099325,"Approved","OW201"
"2023-04-11 17:00",6.47813142226312,"Approved","OW201"
"2023-04-11 18:00",6.482980423533,"Approved","OW201"
"2023-04-11 19:00",6.48017346480288,"Approved","OW201"
"2023-04-11 20:00",6.48270386607275,"Approved","OW201"
"2023-04-11 21:00",6.48225938734263,"Approved","OW201"
"2023-04-11 22:00",6.4837914186125,"Approved","OW201"
"2023-04-11 23:00",6.48553747988238,"Approved","OW201"
"2023-04-12 00:00",6.48432269115226,"Approved","OW201"
"2023-04-12 01:00",6.48642030242213,"Approved","OW201"
"2023-04-12 02:00",6.49176930369201,"Approved","OW201"
"2023-04-12 03:00",6.49175125496188,"Approved","OW201"
"2023-04-12 04:00",6.49640335623176,"Approved","OW201"
"2023-04-12 05:00",6.49981483750163,"Approved","OW201"
"2023-04-12 06:00",6.49885306877151,"Approved","OW201"
"2023-04-12 07:00",6.50001153004139,"Approved","OW201"
"2023-04-12 08:00",6.50114503131126,"Approved","OW201"
"2023-04-12 09:00",6.49959892258114,"Approved","OW201"
"2023-04-12 10:00",6.49608413385101,"Approved","OW201"
"2023-04-12 11:00",6.49618484512089,"Approved","OW201"
"2023-04-12 12:00",6.49464493639076,"Approved","OW201"
"2023-04-12 13:00",6.49145510766064,"Approved","OW201"
"2023-04-12 14:00",6.48808403893052,"Approved","OW201"
"2023-04-12 15:00",6.48430677020039,"Approved","OW201"
"2023-04-12 16:00",6.48056702147027,"Approved","OW201"
"2023-04-12 17:00",6.47810231274014,"Approved","OW201"
"2023-04-12 18:00",6.47722194401002,"Approved","OW201"
"2023-04-12 19:00",6.4807492452799,"Approved","OW201"
"2023-04-12 20:00",6.47601748654977,"Approved","OW201"
"2023-04-12 21:00",6.47176859781965,"Approved","OW201"
"2023-04-12 22:00",6.46956815908952,"Approved","OW201"
"2023-04-12 23:00",6.4704863203594,"Approved","OW201"
"2023-04-13 00:00",6.47200138162927,"Approved","OW201"
"2023-04-13 01:00",6.47199768289915,"Approved","OW201"
"2023-04-13 02:00",6.46950034416903,"Approved","OW201"
"2023-04-13 03:00",6.4701888154389,"Approved","OW201"
"2023-04-13 04:00",6.47796603670878,"Approved","OW201"
"2023-04-13 05:00",6.47877473797865,"Approved","OW201"
"2023-04-13 06:00",6.47589142924853,"Approved","OW201"
"2023-04-13 07:00",6.47465184051841,"Approved","OW201"
"2023-04-13 08:00",6.47722612178828,"Approved","OW201"
"2023-04-13 09:00",6.47652242305816,"Approved","OW201"
"2023-04-13 10:00",6.47402818432803,"Approved","OW201"
"2023-04-13 11:00",6.47305107559791,"Approved","OW201"
"2023-04-13 12:00",6.47325357686778,"Approved","OW201"
"2023-04-13 13:00",6.47239359813766,"Approved","OW201"
"2023-04-13 14:00",6.47256477940754,"Approved","OW201"
"2023-04-13 15:00",6.47431557067741,"Approved","OW201"
"2023-04-13 16:00",6.47379458194729,"Approved","OW201"
"2023-04-13 17:00",6.47422824321716,"Approved","OW201"
"2023-04-13 18:00",6.47451818448704,"Approved","OW201"
"2023-04-13 19:00",6.47649556575692,"Approved","OW201"
"2023-04-13 20:00",6.47543868702679,"Approved","OW201"
"2023-04-13 21:00",6.47515374829667,"Approved","OW201"
"2023-04-13 22:00",6.47437353956654,"Approved","OW201"
"2023-04-13 23:00",6.47712759083642,"Approved","OW201"
"2023-04-14 00:00",6.4792597821063,"Approved","OW201"
"2023-04-14 01:00",6.48289344337617,"Approved","OW201"
"2023-04-14 02:00",6.48666299464605,"Approved","OW201"
"2023-04-14 03:00",6.49052781591592,"Approved","OW201"
"2023-04-14 04:00",6.4940660471858,"Approved","OW201"
"2023-04-14 05:00",6.49570590845567,"Approved","OW201"
"2023-04-14 06:00",6.49413336972555,"Approved","OW201"
"2023-04-14 07:00",6.49489199099543,"Approved","OW201"
"2023-04-14 08:00",6.4953147222653,"Approved","OW201"
"2023-04-14 09:00",6.49213288353518,"Approved","OW201"
"2023-04-14 10:00",6.49091352480505,"Approved","OW201"
"2023-04-14 11:00",6.48906920607493,"Approved","OW201"
"2023-04-14 12:00",6.49106844734481,"Approved","OW201"
"2023-04-14 13:00",6.49265675861468,"Approved","OW201"
"2023-04-14 14:00",6.48901243988456,"Approved","OW201"
"2023-04-14 15:00",6.48744773115443,"Approved","OW201"
"2023-04-14 16:00",6.48662674242431,"Approved","OW201"
"2023-04-14 17:00",6.48281521369418,"Approved","OW201"
"2023-04-14 18:00",6.48054120496406,"Approved","OW201"
"2023-04-14 19:00",6.47812347623394,"Approved","OW201"
"2023-04-14 20:00",6.47437768750381,"Approved","OW201"
"2023-04-14 21:00",6.47557708877369,"Approved","OW201"
"2023-04-14 22:00",6.47686866004356,"Approved","OW201"
"2023-04-14 23:00",6.48133201131344,"Approved","OW201"
"2023-04-15 00:00",6.48003467258332,"Approved","OW201"
"2023-04-15 01:00",6.47443749385319,"Approved","OW201"
"2023-04-15 02:00",6.47719007512307,"Approved","OW201"
"2023-04-15 03:00",6.47667707639294,"Approved","OW201"
"2023-04-15 04:00",6.48594499766282,"Approved","OW201"
"2023-04-15 05:00",6.48969105893269,"Approved","OW201"
"2023-04-15 06:00",6.48913108020257,"Approved","OW201"
"2023-04-15 07:00",6.49497861147245,"Approved","OW201"
"2023-04-15 08:00",6.49219677274232,"Approved","OW201"
"2023-04-15 09:00",6.4910289640122,"Approved","OW201"
"2023-04-15 10:00",6.49262510528207,"Approved","OW201"
"2023-04-15 11:00",6.49139791655195,"Approved","OW201"
"2023-04-15 12:00",6.49242537782183,"Approved","OW201"
"2023-04-15 13:00",6.4936074890917,"Approved","OW201"
"2023-04-15 14:00",6.49932060036158,"Approved","OW201"
"2023-04-15 15:00",6.49704496163145,"Approved","OW201"
"2023-04-15 16:00",6.50179869290133,"Approved","OW201"
"2023-04-15 17:00",6.5021697141712,"Approved","OW201"
"2023-04-15 18:00",6.50116112544108,"Approved","OW201"
"2023-04-15 19:00",6.50190245671096,"Approved","OW201"
"2023-04-15 20:00",6.50158603798083,"Approved","OW201"
"2023-04-15 21:00",6.49999000925071,"Approved","OW201"
"2023-04-15 22:00",6.49901584052058,"Approved","OW201"
"2023-04-15 23:00",6.49773237179046,"Approved","OW201"
"2023-04-16 00:00",6.49421937306034,"Approved","OW201"
"2023-04-16 01:00",6.49281257433021,"Approved","OW201"
"2023-04-16 02:00",6.49201360560009,"Approved","OW201"
"2023-04-16 03:00",6.49008967686996,"Approved","OW201"
"2023-04-16 04:00",6.49039070813984,"Approved","OW201"
"2023-04-16 05:00",6.48922452940971,"Approved","OW201"
"2023-04-16 06:00",6.48226797067959,"Approved","OW201"
"2023-04-16 07:00",6.47837226194947,"Approved","OW201"
"2023-04-16 08:00",6.47491244321934,"Approved","OW201"
"2023-04-16 09:00",6.47334789448922,"Approved","OW201"
"2023-04-16 10:00",6.47275365575909,"Approved","OW201"
"2023-04-16 11:00",6.47183755702897,"Approved","OW201"
"2023-04-16 12:00",6.46716533829885,"Approved","OW201"
"2023-04-16 13:00",6.46747582956872,"Approved","OW201"
"2023-04-16 14:00",6.4685222108386,"Approved","OW201"
"2023-04-16 15:00",6.47057789210847,"Approved","OW201"
"2023-04-16 16:00",6.47363194337835,"Approved","OW201"
"2023-04-16 17:00",6.47932955464823,"Approved","OW201"
"2023-04-16 18:00",6.4807304259181,"Approved","OW201"
"2023-04-16 19:00",6.48767942718798,"Approved","OW201"